Дата Пункты Температура Давл., мм. Влажн., % Ветер Погодные явления
Воздуха Воды Направл. Скорость
26.04.16 12:00 Одесса 13.0 12.0 748 83 Пн 1 12 часов
26.04.16 09:00 Одесса 10.0 12.0 747 94 З 3 09 часов
26.04.16 06:00 Одесса 9.0 12.0 746 97 З 2 06 часов
26.04.16 03:00 Одесса 11.0 12.0 745 99 З 1 03 часа
25.04.16 09:00 Одесса 11.0 12.0 745 96 Пд 1 21 час
25.04.16 06:00 Одесса 11.0 12.0 745 98 Пд-С 1 18 часов
25.04.16 03:00 Одесса 11.0 12.0 745 99 С 1 15 часов
25.04.16 12:00 Одесса 11.0 12.0 745 98 Пн 0 12 часов
25.04.16 09:00 Одесса 11.0 12.0 744 98 Пн-З 1 09 часов
25.04.16 06:00 Одесса 11.0 11.0 745 89 Пн-С 1 06 часов
25.04.16 03:00 Одесса 10.0 11.0 746 82 Пн 1 03 часа
24.04.16 09:00 Одесса 10.0 11.0 747 94 Пд-С 1 21 час
24.04.16 06:00 Одесса 12.0 11.0 747 80 Пд-С 2 18 часов
24.04.16 03:00 Одесса 13.0 11.0 748 89 Пд-С 2 15 часов
24.04.16 12:00 Одесса 13.0 10.0 749 91 Пд-С 3 12 часов
24.04.16 09:00 Одесса 11.0 10.0 750 99 С 3 09 часов
24.04.16 06:00 Одесса 9.0 9.0 750 98 С 2 06 часов
24.04.16 03:00 Одесса 9.0 0.0 752 98 Пд-С 2 03 часа
23.04.16 09:00 Одесса 9.0 9.0 753 98 Пд-С 2 21 час
23.04.16 06:00 Одесса 11.0 9.0 754 94 Пд 3 18 часов
Количество строк
351 352 353 354 355 356 357 358 359 360
Page 354 of 511